Regional Weather Roundup
Issued by NWS Little Rock, AR

Home | Current Version | Previous Version | Text Only | Print | Product List | Glossary Off
Versions: 1 2 3 4 5 6 7 8 9 10 11 12 13 14 15 16 17 18 19 20 21 22 23 24 25 26 27 28 29 30 31 32

000
ASUS44 KLZK 280505
RWRLZK

WEATHER ROUNDUP FOR ARKANSAS
NATIONAL WEATHER SERVICE LITTLE ROCK AR
1200 AM CDT WED JUN 28 2017

NOTE: "FAIR" INDICATES FEW OR NO CLOUDS BELOW 12,000 FEET WITH NO
SIGNIFICANT WEATHER AND/OR OBSTRUCTIONS TO VISIBILITY.

ARZ001-003-010-029-280600-
NORTHWEST ARKANSAS

CITY           SKY/WX    TMP DP  RH WIND       PRES   REMARKS
FAYETTEVILLE   CLEAR     72  61  68 SE7       30.02S
FORT SMITH     CLEAR     73  66  78 CALM      30.00R
HARRISON       CLEAR     67  63  87 SE7       30.05S
BENTONVILLE    CLEAR     72  61  68 S7        30.03R
ROGERS         CLEAR     71  62  73 SE8       30.04R
SILOAM SPGS    CLEAR     72  61  68 S8        30.02R
HIGHFILL       CLEAR     70  63  78 S9        30.02R
$$

ARZ004-005-016-280600-
NORTH CENTRAL ARKANSAS

CITY           SKY/WX    TMP DP  RH WIND       PRES   REMARKS
BATESVILLE     CLEAR     70  63  78 SE3       30.05F
FLIPPIN        CLEAR     70  59  68 CALM      30.02S
MTN HOME       CLEAR     67  63  87 S3        30.04S
$$

ARZ040-041-280600-
WEST CENTRAL ARKANSAS

CITY           SKY/WX    TMP DP  RH WIND       PRES   REMARKS
MENA           CLEAR     68  66  94 W3        30.04S
MOUNT IDA      CLEAR     69  64  84 CALM      30.01F
$$

ARZ009-017-025-026-028-280600-
NORTHEAST ARKANSAS

CITY           SKY/WX    TMP DP  RH WIND       PRES   REMARKS
CORNING        FAIR      70  70 100 SE5       30.06S
JONESBORO      PTCLDY    69  67  93 CALM      30.05S
WALNUT RIDGE   CLEAR     72  64  78 E6        30.05S
BLYTHEVILLE    PTCLDY    72  67  84 SE3       30.07R
$$

ARZ022-023-033-042-044-280600-
CENTRAL ARKANSAS

CITY           SKY/WX    TMP DP  RH WIND       PRES   REMARKS
LITTLE ROCK    PTCLDY    71  67  87 SE3       30.03F
N LITTLE ROCK    N/A     74  65  74 SE3       30.03S
JACKSONVILLE   CLEAR     68  68  99 CALM      30.03S
CONWAY           N/A     70  68  94 CALM      30.01F
SEARCY         CLEAR     68  68 100 CALM      30.06S
HOT SPRINGS    PTCLDY    72  66  81 E6        30.03S
RUSSELLVILLE   CLEAR     71  65  81 CALM      30.01F
CLINTON        FAIR      64  64 100 CALM      30.04F
$$

ARZ036-280600-
EAST ARKANSAS

CITY           SKY/WX    TMP DP  RH WIND       PRES   REMARKS
WEST MEMPHIS   PTCLDY    70  68  93 CALM      30.04F
$$

ARZ050-053-066-070-073-280600-
SOUTHWEST ARKANSAS

CITY           SKY/WX    TMP DP  RH WIND       PRES   REMARKS
ARKADELPHIA    FAIR      69  68  96 CALM      30.03R
CAMDEN         PTCLDY    68  64  88 CALM      30.02S
TEXARKANA      CLEAR     73  68  84 E3        30.01R
EL DORADO      CLEAR     70  67  90 CALM      30.02R
DE QUEEN       CLEAR     70  69  97 CALM      29.98S
$$

ARZ056-057-069-280600-
SOUTHEAST ARKANSAS

CITY           SKY/WX    TMP DP  RH WIND       PRES   REMARKS
PINE BLUFF     PTCLDY    70  67  90 CALM      30.03S
STUTTGART      CLEAR     75  57  53 E5        30.05S
MONTICELLO     CLEAR     69  66  90 CALM      30.03R

$$






USA.gov is the U.S. government's official web portal to all federal, state and local government web resources and services.